Waarnemingen

Advertentie
Mijn weer
Kempten, Duitsland (10946): temperatuur & dauwpunt: 20.04.2017 06:00:00 - 26.04.2017 06:00:00 (CEST)Kempten, Duitsland (10946): temperatuur 5cm & temperatuur -5cm: 20.04.2017 06:00:00 - 26.04.2017 06:00:00 (CEST)Kempten, Duitsland (10946): temperatuur -20cm & temperatuur -100cm: 20.04.2017 06:00:00 - 26.04.2017 06:00:00 (CEST)Kempten, Duitsland (10946): windsnelheid & windstoten: 20.04.2017 06:00:00 - 26.04.2017 06:00:00 (CEST)Kempten, Duitsland (10946): windrichting: 20.04.2017 06:00:00 - 26.04.2017 06:00:00 (CEST)Kempten, Duitsland (10946): luchtdruk: 20.04.2017 06:00:00 - 26.04.2017 06:00:00 (CEST)Kempten, Duitsland (10946): zicht: 20.04.2017 06:00:00 - 26.04.2017 06:00:00 (CEST)Kempten, Duitsland (10946): Zonneschijnduur: 20.04.2017 06:00:00 - 26.04.2017 06:00:00 (CEST)Kempten, Duitsland (10946): neerslag: 20.04.2017 06:00:00 - 26.04.2017 06:00:00 (CEST)
Datum & Tijd tt [°C] td [°C] tt 5cm [°C] tt -5cm [°C] tt -20cm [°C] tt -100cm [°C] ff [km/u] ff [kn] fx [km/u] fx [kn] dd ppp [hPa] vv [km] sd [min] rr [mm]
26.04.2017 06:00:00 1,6 1,2 1,8 5,0 8,4 8,5 8 5 16 8 NW 1008,6 7 0 1,0
26.04.2017 05:00:00 2,2 1,8 2,4 5,5 8,6 8,5 9 5 16 8 NNW 1008,5 5 0 1,3
26.04.2017 04:00:00 4,1 3,6 4,1 6,2 8,7 8,5 6 3 9 5 NNW 1008,1 4,5 0 0,6
26.04.2017 03:00:00 4,4 3,7 4,4 6,6 8,9 8,5 5 3 8 4 NNW 1007,9 17 0 0,0
26.04.2017 02:00:00 5,0 4,4 4,8 6,7 9,0 8,5 3 2 9 5 N 1007,8 24 0 0,0
26.04.2017 01:00:00 5,1 4,6 4,9 6,8 9,1 8,5 4 2 8 4 NNO 1007,6 20 0 0,2
26.04.2017 00:00:00 5,1 4,6 4,9 7,0 9,3 8,5 2 1 8 5 NNO 1008,1 9 0 1,0
25.04.2017 23:00:00 5,4 4,7 5,2 7,3 9,5 8,5 4 2 8 4 N 1008,7 6 0 1,6
25.04.2017 22:00:00 5,9 5,6 5,7 7,7 9,6 8,5 6 3 12 6 N 1009,1 6 0 1,1
25.04.2017 21:00:00 6,4 5,9 6,2 8,1 9,8 8,5 6 3 10 5 NNW 1008,8 5 0 1,6
25.04.2017 20:00:00 7,0 5,7 6,5 8,7 9,9 8,5 8 4 16 9 WNW 1008,4 7 0 0,9
25.04.2017 19:00:00 7,7 6,3 7,4 9,5 9,9 8,5 6 3 27 14 NW 1008,2 8 0 1,6
25.04.2017 18:00:00 9,3 6,7 8,3 10,2 10,0 8,5 6 3 20 11 W 1007,5 6 0 0,1
25.04.2017 17:00:00 10,2 6,8 9,2 10,8 9,9 8,5 8 5 35 19 W 1007,1 10 0 0,0
25.04.2017 16:00:00 11,2 6,2 11,2 11,6 9,9 8,5 8 4 32 17 W 1006,8 35 0 0,0
25.04.2017 15:00:00 11,5 6,5 11,9 12,1 9,7 8,5 8 5 29 16 WZW 1007,3 35 0 0,0
25.04.2017 14:00:00 11,6 6,1 12,3 12,5 9,6 8,5 14 8 32 18 WZW 1007,6 39 0 0,0
25.04.2017 13:00:00 11,3 6,6 10,8 12,7 9,3 8,5 16 9 35 19 WNW 1008,0 16 0 0,0
25.04.2017 12:00:00 12,4 6,4 13,6 14,9 9,0 8,5 10 6 26 14 W 1007,7 40 6 0,0
25.04.2017 11:00:00 11,5 6,9 12,7 13,0 8,8 8,5 10 5 32 17 W 1008,0 34 1 0,0
25.04.2017 10:00:00 11,1 6,9 11,0 11,2 8,7 8,5 14 7 32 17 W 1008,1 29 13 0,0
25.04.2017 09:00:00 10,2 6,6 9,1 8,9 8,7 8,5 14 7 33 18 W 1008,3 15 3 0,0
25.04.2017 08:00:00 10,5 5,3 9,1 8,1 8,7 8,5 9 5 21 11 ZZW 1007,8 40 0 0,0
25.04.2017 07:00:00 9,3 3,9 7,5 6,8 8,8 8,5 6 4 14 8 Z 1008,0 41 0 0,0
25.04.2017 06:00:00 8,1 3,4 6,0 6,5 9,0 8,5 5 3 12 6 OZO 1008,4 46 0 0,0
25.04.2017 05:00:00 6,9 3,0 5,2 5,8 9,2 8,5 6 4 12 6 Z 1009,0 42 0 0,0
25.04.2017 04:00:00 3,7 1,9 2,4 4,7 9,5 8,5 9 5 12 6 OZO 1010,2 26 0 0,0
25.04.2017 03:00:00 3,4 1,8 2,2 4,8 9,8 8,5 10 5 11 6 O 1010,6 23 0 0,0
25.04.2017 02:00:00 4,7 2,6 1,6 5,3 10,2 8,4 5 3 14 8 OZO 1010,9 30 0 0,0
25.04.2017 01:00:00 6,2 3,0 2,9 6,0 10,5 8,5 9 5 14 8 ZO 1010,7 28 0 0,0
25.04.2017 00:00:00 6,5 3,3 3,4 6,7 10,9 8,4 9 5 15 8 ZO 1011,0 31 0 0,0
24.04.2017 23:00:00 6,9 4,0 4,0 7,7 11,3 8,4 7 4 12 6 ZO 1011,5 28 0 0,0
24.04.2017 22:00:00 7,3 4,2 5,2 8,8 11,6 8,4 8 4 11 6 OZO 1011,9 17 0 0,0
24.04.2017 21:00:00 10,1 4,3 7,0 10,4 11,8 8,4 5 3 12 6 ZO 1011,3 26 2 0,0
24.04.2017 20:00:00 14,4 2,6 11,5 12,7 11,9 8,4 9 5 22 12 ZW 1010,3 40 34 0,0
24.04.2017 19:00:00 15,8 1,8 15,5 15,9 11,8 8,4 16 8 25 14 W 1010,4 32 60 0,0
24.04.2017 18:00:00 16,5 1,6 17,7 18,9 11,5 8,4 14 7 29 16 W 1010,5 18 60 0,0
24.04.2017 17:00:00 16,8 0,0 19,4 22,0 11,0 8,4 16 8 37 20 WNW 1011,0 20 60 0,0
24.04.2017 16:00:00 16,4 0,2 20,3 23,2 10,3 8,4 19 11 39 21 ZW 1012,1 5 60 0,0
24.04.2017 15:00:00 16,0 -1,4 19,3 24,3 9,5 8,4 18 10 31 17 WZW 1012,8 11 60 0,0
24.04.2017 14:00:00 14,9 1,6 19,3 25,4 8,6 8,4 10 5 22 12 W 1013,8 20 60 0,0
24.04.2017 13:00:00 13,1 3,3 16,6 24,0 7,6 8,4 8 5 15 8 NW 1015,0 18 60 0,0
24.04.2017 12:00:00 10,6 0,8 13,9 21,6 6,8 8,4 9 5 15 8 WNW 1016,7 21 60 0,0
24.04.2017 11:00:00 9,8 0,8 13,3 17,0 6,2 8,4 5 3 11 6 NW 1017,3 25 60 0,0
24.04.2017 10:00:00 7,3 0,1 10,9 13,8 6,0 8,4 4 2 10 5 ZO 1018,3 22 60 0,0
24.04.2017 09:00:00 3,3 -0,3 7,3 6,3 6,0 8,4 8 5 11 6 Z 1020,2 18 60 0,0
24.04.2017 08:00:00 0,9 -1,7 0,7 0,7 6,2 8,4 5 3 9 5 ZZO 1021,1 14 52 0,0
24.04.2017 07:00:00 -2,7 -3,4 -3,9 0,5 6,5 8,4 6 3 9 5 ZO 1022,5 11 0 0,0
24.04.2017 06:00:00 -2,7 -3,6 -4,2 0,5 6,7 8,4 6 3 8 4 OZO 1022,8 15 0 0,0
24.04.2017 05:00:00 -2,3 -3,3 -3,6 0,6 7,0 8,4 5 3 6 4 O 1023,3 16 0 0,0
24.04.2017 04:00:00 -1,7 -3,1 -3,2 0,6 7,3 8,4 1 1 5 3 OZO 1023,7 23 0 0,0
24.04.2017 03:00:00 -0,9 -2,6 -3,3 0,8 7,6 8,4 3 2 6 3 NNW 1024,1 30 0 0,0
24.04.2017 02:00:00 -0,9 -2,6 -3,1 0,8 8,0 8,4 2 1 6 3 N 1024,9 21 0 0,0
24.04.2017 01:00:00 0,5 -2,7 -2,6 1,4 8,4 8,4 5 3 11 6 NO 1025,3 27 0 0,0
24.04.2017 00:00:00 0,8 -2,3 -2,4 2,0 8,8 8,4 3 1 9 5 NNO 1025,5 28 0 0,0
23.04.2017 23:00:00 0,8 -1,1 -1,6 2,9 9,2 8,4 5 3 10 5 NNO 1025,7 17 0 0,0
23.04.2017 22:00:00 2,0 -1,1 0,0 4,0 9,6 8,4 6 4 11 6 ONO 1025,2 16 0 0,0
23.04.2017 21:00:00 4,6 -0,5 1,7 5,5 9,9 8,4 6 3 10 5 ONO 1023,8 26 4 0,0
23.04.2017 20:00:00 7,4 -0,8 5,4 7,8 10,0 8,4 4 2 18 10 NO 1022,7 36 60 0,0
23.04.2017 19:00:00 8,7 -1,1 9,0 11,0 9,9 8,4 10 5 21 12 N 1022,2 33 57 0,0
23.04.2017 18:00:00 9,1 -1,1 9,5 12,9 9,6 8,4 10 5 24 13 NW 1021,9 31 26 0,0
23.04.2017 17:00:00 9,6 -0,4 11,6 15,6 9,2 8,4 9 5 27 15 NW 1021,8 25 25 0,0
23.04.2017 16:00:00 9,5 0,2 13,5 19,2 8,8 8,4 13 7 23 12 NNW 1022,0 12 34 0,0
23.04.2017 15:00:00 8,1 -0,2 10,9 17,0 8,5 8,4 11 6 19 11 WNW 1023,0 24 7 0,0
23.04.2017 14:00:00 7,1 0,3 8,2 12,3 8,2 8,4 8 5 26 14 NNW 1023,7 19 1 0,0
23.04.2017 13:00:00 6,7 -0,3 8,4 13,2 7,8 8,4 12 7 24 13 WNW 1023,8 21 0 0,0
23.04.2017 12:00:00 6,6 -1,5 9,0 14,9 7,4 8,4 10 5 21 11 W 1024,1 28 9 0,0
23.04.2017 11:00:00 5,5 0,8 7,5 11,6 7,1 8,4 8 4 11 6 NW 1024,5 13 1 0,0
23.04.2017 10:00:00 4,8 1,4 6,5 10,6 7,0 8,4 2 1 8 5 WNW 1024,8 12 5 0,0
23.04.2017 09:00:00 3,0 1,4 3,2 5,5 7,1 8,4 2 1 8 4 NW 1025,4 14 0 0,0
23.04.2017 08:00:00 2,4 1,1 2,5 4,5 7,2 8,4 5 3 10 6 Z 1025,4 15 0 0,0
23.04.2017 07:00:00 2,1 0,7 2,0 4,0 7,4 8,4 7 4 14 8 Z 1025,0 16 0 0,0
23.04.2017 06:00:00 2,2 0,4 2,0 4,0 7,6 8,4 8 5 14 8 Z 1024,8 20 0 0,0
23.04.2017 05:00:00 2,2 0,8 1,9 4,2 7,8 8,4 9 5 15 8 Z 1024,8 15 0 0,0
23.04.2017 04:00:00 2,2 1,3 2,2 4,5 8,0 8,4 8 4 16 9 Z 1024,9 11 0 0,0
23.04.2017 03:00:00 2,3 1,6 2,3 4,7 8,2 8,4 9 5 18 10 ZZW 1025,0 10 0 0,1
23.04.2017 02:00:00 2,4 1,7 2,6 5,1 8,4 8,4 9 5 17 9 Z 1025,2 4,8 0 0,4
23.04.2017 01:00:00 3,4 2,7 3,4 5,9 8,6 8,4 5 3 17 9 ZW 1024,8 4,7 0 0,7
23.04.2017 00:00:00 3,9 3,0 3,6 6,3 8,8 8,4 6 4 17 9 NW 1024,4 4,2 0 1,4
22.04.2017 23:00:00 4,9 4,2 4,7 6,9 9,0 8,4 9 5 23 12 NW 1023,8 2,1 0 1,5
22.04.2017 22:00:00 6,3 4,7 5,7 7,7 9,1 8,4 5 3 16 9 ZW 1022,9 8 0 0,1
22.04.2017 21:00:00 6,7 4,2 5,7 7,9 9,3 8,4 8 5 16 9 ZW 1022,6 13 0 0,3
22.04.2017 20:00:00 7,7 3,2 6,2 8,7 9,4 8,4 9 5 17 9 ZW 1022,1 13 0 0,0
22.04.2017 19:00:00 9,1 2,1 8,1 10,0 9,5 8,5 8 5 21 11 W 1021,7 22 0 0,0
22.04.2017 18:00:00 9,2 1,8 9,2 11,0 9,5 8,5 13 7 31 17 WZW 1021,7 25 0 0,0
22.04.2017 17:00:00 9,5 1,5 9,8 12,0 9,3 8,5 15 8 34 18 WNW 1021,8 24 0 0,0
22.04.2017 16:00:00 10,2 2,0 11,4 14,8 9,0 8,5 18 10 36 20 WNW 1021,8 22 0 0,0
22.04.2017 15:00:00 11,1 2,3 14,2 18,3 8,6 8,5 17 9 36 19 NW 1021,8 24 1 0,0
22.04.2017 14:00:00 9,9 2,0 11,8 15,6 8,0 8,5 18 10 39 21 NW 1022,7 20 15 0,0
22.04.2017 13:00:00 11,8 0,3 14,9 18,5 7,3 8,5 20 11 39 21 WZW 1022,6 20 45 0,0
22.04.2017 12:00:00 11,9 0,7 15,8 20,2 6,6 8,5 16 8 33 18 W 1023,1 15 60 0,0
22.04.2017 11:00:00 11,3 -0,9 15,4 15,9 6,1 8,5 12 7 30 16 W 1023,6 26 60 0,0
22.04.2017 10:00:00 9,9 -4,4 12,2 12,4 5,9 8,5 17 9 34 18 W 1024,2 23 60 0,0
22.04.2017 09:00:00 6,4 -0,7 9,4 7,2 5,9 8,5 10 5 14 8 Z 1025,5 28 60 0,0
22.04.2017 08:00:00 3,0 -2,3 3,6 1,6 6,1 8,5 9 5 16 9 ZZO 1026,8 33 49 0,0
22.04.2017 07:00:00 0,3 -2,6 -2,0 0,8 6,3 8,5 8 5 16 9 ZO 1027,6 37 0 0,0
22.04.2017 06:00:00 0,9 -2,7 -1,4 0,8 6,5 8,5 8 5 14 8 ZZO 1027,6 44 0 0,0
22.04.2017 05:00:00 0,7 -2,6 -2,2 0,7 6,8 8,5 8 4 14 7 ZZO 1027,9 45 0 0,0
22.04.2017 04:00:00 0,9 -2,4 -1,7 0,7 7,2 8,5 8 4 16 9 ZO 1028,4 50 0 0,0
22.04.2017 03:00:00 1,3 -2,2 -1,4 1,2 7,5 8,5 7 4 16 9 ZZO 1028,8 53 0 0,0
22.04.2017 02:00:00 1,7 -2,2 -1,0 1,6 7,8 8,5 9 5 16 9 ZO 1029,3 49 0 0,0
22.04.2017 01:00:00 2,2 -1,9 -0,3 2,2 8,2 8,6 8 5 18 10 ZZO 1029,5 50 0 0,0
22.04.2017 00:00:00 2,7 -1,6 0,3 2,9 8,6 8,6 9 5 19 10 ZZO 1029,7 45 0 0,0
21.04.2017 23:00:00 3,3 -1,1 0,8 3,6 9,0 8,6 9 5 19 10 ZZO 1029,8 48 0 0,0
21.04.2017 22:00:00 4,3 -2,3 1,7 4,4 9,4 8,6 10 6 15 8 ZZO 1029,6 37 0 0,0
21.04.2017 21:00:00 7,1 -7,6 3,0 5,9 9,7 8,6 8 5 15 8 ZZW 1028,6 55 3 0,0
21.04.2017 20:00:00 9,5 -8,0 6,8 8,1 9,8 8,6 11 6 18 10 W 1027,9 50 60 0,0
21.04.2017 19:00:00 10,9 -5,7 11,1 11,6 9,7 8,6 10 5 24 13 W 1027,5 37 60 0,0
21.04.2017 18:00:00 10,7 -6,7 12,5 14,6 9,4 8,6 13 7 24 13 W 1027,7 29 60 0,0
21.04.2017 17:00:00 11,4 -5,5 14,8 17,9 8,9 8,6 10 5 24 13 ZW 1027,7 29 60 0,0
21.04.2017 16:00:00 10,9 -5,7 14,6 19,5 8,2 8,6 13 7 23 13 WZW 1028,6 3,6 60 0,0
21.04.2017 15:00:00 10,4 -5,5 13,9 21,4 7,4 8,6 6 3 18 10 ZW 1029,4 34 56 0,0
21.04.2017 14:00:00 7,9 -10,1 14,0 19,2 6,6 8,6 9 5 16 9 Z 1031,0 36 34 0,0
21.04.2017 13:00:00 7,2 -5,8 12,8 18,9 5,7 8,6 9 5 19 10 OZO 1031,7 23 52 0,0
21.04.2017 12:00:00 6,5 -4,3 11,3 18,5 5,0 8,7 6 3 16 9 ZW 1032,2 30 60 0,0
21.04.2017 11:00:00 4,4 -5,3 8,9 12,8 4,6 8,7 5 3 13 7 O 1033,1 33 60 0,0
21.04.2017 10:00:00 1,7 -6,2 6,0 6,6 4,6 8,7 8 4 13 7 Z 1034,0 24 60 0,0
21.04.2017 09:00:00 -0,5 -5,4 1,3 0,3 4,8 8,7 7 4 13 7 ZZO 1034,7 27 60 0,0
21.04.2017 08:00:00 -2,9 -6,4 -1,9 -0,2 4,9 8,7 7 4 13 7 ZO 1035,4 15 48 0,0
21.04.2017 07:00:00 -5,1 -6,8 -6,4 -0,7 5,1 8,7 8 4 11 6 ZO 1035,9 17 0 0,0
21.04.2017 06:00:00 -5,1 -6,7 -6,3 -0,8 5,3 8,7 9 5 13 7 OZO 1036,0 16 0 0,0
21.04.2017 05:00:00 -4,8 -6,4 -5,9 -0,1 5,5 8,7 10 5 12 6 OZO 1035,8 15 0 0,0
21.04.2017 04:00:00 -4,4 -6,0 -5,5 0,2 5,7 8,7 9 5 11 6 OZO 1036,0 14 0 0,0
21.04.2017 03:00:00 -3,7 -5,4 -5,2 0,3 6,0 8,7 7 4 11 6 OZO 1036,2 14 0 0,0
21.04.2017 02:00:00 -2,9 -4,8 -4,6 0,5 6,2 8,8 6 3 12 7 ZO 1036,6 18 0 0,0
21.04.2017 01:00:00 -2,4 -4,5 -4,2 0,5 6,6 8,8 6 3 13 7 ZZO 1036,7 13 0 0,0
21.04.2017 00:00:00 -1,3 -3,8 -2,9 0,7 6,9 8,8 8 5 16 8 Z 1036,6 18 0 0,0
20.04.2017 23:00:00 -1,6 -3,4 -3,3 1,0 7,3 8,8 5 3 12 7 ZZO 1036,7 12 0 0,0
20.04.2017 22:00:00 -1,4 -3,2 -3,3 1,7 7,7 8,8 8 4 10 6 OZO 1036,5 12 0 0,0
20.04.2017 21:00:00 -0,1 -2,8 -2,1 3,3 7,9 8,8 6 3 7 4 O 1035,8 4,0 0 0,0
20.04.2017 20:00:00 2,6 -5,0 1,6 6,7 7,9 8,8 5 3 11 6 OZO 1034,7 33 30 0,0
20.04.2017 19:00:00 3,7 -5,3 7,6 10,1 7,7 8,8 6 3 14 7 OZO 1033,9 37 60 0,0
20.04.2017 18:00:00 3,7 -6,0 7,0 12,0 7,4 8,8 8 4 18 10 N 1033,9 34 35 0,0
20.04.2017 17:00:00 4,0 -5,1 8,8 14,1 7,0 8,8 5 3 14 8 Z 1033,7 10 26 0,0
20.04.2017 16:00:00 3,9 -5,0 8,4 17,0 6,5 8,9 8 4 22 12 N 1033,9 25 47 0,0
20.04.2017 15:00:00 1,9 -7,0 4,1 11,1 5,9 8,9 6 3 21 12 NNO 1035,0 33 20 0,0
20.04.2017 14:00:00 2,8 -4,4 9,3 16,9 5,3 8,9 9 5 16 9 OZO 1034,7 16 24 0,0
20.04.2017 13:00:00 0,8 -5,9 3,5 10,1 4,9 8,9 8 4 16 9 O 1035,6 44 3 0,0
20.04.2017 12:00:00 -0,5 -4,7 2,2 6,3 4,7 8,9 5 3 14 8 NO 1036,0 8 0 0,0
20.04.2017 11:00:00 0,3 -4,5 2,1 7,3 4,4 8,9 5 3 14 8 NO 1035,3 25 19 0,0
20.04.2017 10:00:00 0,0 -4,3 0,4 6,5 4,4 8,9 6 3 15 8 ONO 1035,2 9 59 0,0
20.04.2017 09:00:00 -1,3 -5,0 -0,8 0,5 4,5 8,9 7 4 12 7 NO 1035,5 13 60 0,0
20.04.2017 08:00:00 -2,8 -5,4 -2,6 0,4 4,6 8,9 6 3 9 5 N 1035,3 13 28 0,0
20.04.2017 07:00:00 -4,9 -5,8 -5,9 0,2 4,8 9,0 3 2 5 3 NNW 1035,5 9 0 0,0
20.04.2017 06:00:00 -4,8 -5,8 -6,0 0,2 4,9 9,0 4 2 9 5 N 1035,0 10 0 0,0

tt = temperatuur
td = dauwpunt
tt 5cm = temperatuur 5cm
tt -5cm = temperatuur -5cm
tt -20cm = temperatuur -20cm
tt -100cm = temperatuur -100cm
ff = windsnelheid
fx = windstoten
dd = windrichting
ppp = luchtdruk
vv = zicht
sd = Zonneschijnduur
rr = neerslag

Weerstations in de omgeving